EW2719 Weather Reports


Display with metric or nautical units.
time (UTC)temp
F
wind
direction
speed
MPH
gust
MPH
rain 1hr
in
rain 24hr
in
rain mn
in
humidity
%
barometer
mb
20260507083003 53 202 0.0 5.0 0.00 0.00 0.00 76 1016.0
20260507081610 52 311 1.0 5.0 0.00 0.00 0.00 76 1015.8
20260507080115 52 39 0.0 2.0 0.00 0.00 0.00 77 1015.7
20260507074553 52 306 1.0 4.0 0.00 0.00 0.00 79 1015.5
20260507073049 51 306 0.0 4.0 0.00 0.00 0.00 80 1015.5
20260507071604 50 271 0.0 3.0 0.00 0.00 0.00 79 1015.5
20260507070042 50 246 0.0 3.0 0.00 0.00 0.00 80 1015.4
20260507064537 49 240 1.0 4.0 0.00 0.00 0.00 82 1015.4
20260507063041 48 254 1.0 3.0 0.00 0.00 0.00 83 1015.3
20260507061531 48 272 1.0 3.0 0.00 0.00 0.00 85 1015.2
20260507060030 47 292 0.0 1.0 0.00 0.00 0.00 85 1015.0
20260507054525 46 320 2.0 4.0 0.00 0.00 0.00 87 1014.9
20260507053021 45 204 0.0 0.0 0.00 0.00 0.00 88 1014.6
20260507051527 42 204 0.0 1.0 0.00 0.00 0.00 88 1014.5
20260507050013 40 283 0.0 3.0 0.00 0.00 0.00 88 1014.4
20260507044508 39 276 3.0 4.0 0.00 0.00 0.00 88 1014.3
20260507043010 38 288 1.0 4.0 0.00 0.00 0.00 89 1014.2
20260507041505 37 284 1.0 5.0 0.00 0.00 0.00 88 1014.0
20260507040118 37 277 2.0 5.0 0.00 0.00 0.00 88 1013.9
20260507034601 37 269 0.0 0.0 0.00 0.00 0.00 88 1013.8
20260507033101 36 293 0.0 3.0 0.00 0.00 0.00 88 1013.7
20260507031557 36 282 0.0 4.0 0.00 0.00 0.00 87 1013.8
20260507030055 37 300 3.0 5.0 0.00 0.00 0.00 86 1013.7
20260507024600 38 292 2.0 5.0 0.00 0.00 0.00 86 1013.7
20260507023047 38 339 2.0 5.0 0.00 0.00 0.00 86 1013.6
20260507021545 39 17 0.0 3.0 0.00 0.00 0.00 86 1013.4
20260507020045 38 360 0.0 4.0 0.00 0.00 0.00 85 1013.3
20260507014550 38 344 3.0 5.0 0.00 0.00 0.00 84 1013.3
20260507013036 40 15 2.0 4.0 0.00 0.00 0.00 82 1013.3
20260507011540 40 23 3.0 4.0 0.00 0.00 0.00 82 1013.2
20260507010036 40 19 3.0 4.0 0.00 0.00 0.00 81 1013.3
20260507004537 40 5 2.0 5.0 0.00 0.00 0.00 80 1013.3
20260507003031 41 5 4.0 6.0 0.00 0.00 0.00 79 1013.2
20260507001531 41 17 4.0 6.0 0.00 0.00 0.00 80 1013.1
20260507000029 41 15 5.0 8.0 0.00 0.00 0.00 79 1013.1
20260506234527 41 11 6.0 9.0 0.00 0.00 0.00 79 1013.1
20260506233024 41 15 4.0 7.0 0.00 0.00 0.00 77 1013.2
20260506231523 41 5 4.0 6.0 0.00 0.00 0.00 77 1013.2
20260506230021 41 5 5.0 8.0 0.00 0.00 0.00 75 1013.1
20260506224520 42 15 4.0 6.0 0.00 0.00 0.00 74 1013.0
20260506223017 42 10 4.0 6.0 0.00 0.00 0.00 74 1013.0
20260506221513 42 360 2.0 4.0 0.00 0.00 0.00 74 1012.9
20260506220028 42 355 3.0 6.0 0.00 0.00 0.00 74 1013.0
20260506214510 43 9 3.0 7.0 0.00 0.00 0.00 73 1012.7
20260506213010 43 15 4.0 8.0 0.00 0.00 0.00 74 1012.5
20260506211510 43 355 5.0 8.0 0.00 0.00 0.00 74 1012.7
20260506210013 43 360 4.0 8.0 0.00 0.00 0.00 76 1012.7
20260506204509 43 355 7.0 10.0 0.00 0.00 0.00 76 1012.6
20260506203013 44 355 7.0 10.0 0.00 0.00 0.00 76 1012.6
20260506201507 44 355 5.0 9.0 0.00 0.00 0.00 76 1012.6
20260506200005 45 360 5.0 9.0 0.00 0.00 0.00 75 1012.5
20260506194505 46 355 3.0 9.0 0.00 0.00 0.00 73 1012.4
20260506193002 47 355 5.0 10.0 0.00 0.00 0.00 72 1012.3
20260506191609 49 14 4.0 8.0 0.00 0.00 0.00 67 1011.9
20260506191501 49 18 4.0 8.0 0.00 0.00 0.00 67 1012.0
20260506190059 51 160 0.0 1.0 0.00 0.00 0.00 64 1011.7
20260506184559 52 150 0.0 1.0 0.00 0.00 0.00 63 1011.5
20260506183113 53 55 0.0 1.0 0.00 0.00 0.00 61 1011.3
20260506181601 53 44 2.0 5.0 0.00 0.00 0.00 61 1011.2
20260506180113 52 17 0.0 2.0 0.00 0.00 0.00 62 1011.2
20260506174553 52 100 0.0 4.0 0.00 0.00 0.00 64 1011.0
20260506173118 53 22 0.0 4.0 0.00 0.00 0.00 63 1010.9
20260506171548 54 35 3.0 6.0 0.00 0.00 0.00 63 1010.9
20260506170046 54 61 2.0 4.0 0.00 0.00 0.00 65 1010.8
20260506164544 54 25 4.0 9.0 0.00 0.00 0.00 60 1010.7
20260506163045 55 32 3.0 5.0 0.00 0.00 0.00 61 1010.7
20260506161552 56 30 3.0 6.0 0.00 0.00 0.00 57 1010.7
20260506160045 57 26 6.0 9.0 0.00 0.00 0.00 55 1010.7
20260506154544 57 36 3.0 9.0 0.00 0.00 0.00 48 1010.7
20260506153042 57 36 1.0 9.0 0.00 0.00 0.00 48 1010.8
20260506151545 57 36 2.0 11.0 0.00 0.00 0.00 47 1010.7
20260506150043 57 25 1.0 8.0 0.00 0.00 0.00 43 1010.8
20260506144558 58 26 6.0 8.0 0.00 0.00 0.00 51 1010.7
20260506143039 56 21 0.0 1.0 0.00 0.00 0.00 52 1010.7
20260506141540 55 17 3.0 6.0 0.00 0.00 0.00 49 1010.9
20260506140037 57 69 2.0 5.0 0.00 0.00 0.00 47 1010.9
20260506134536 56 27 3.0 10.0 0.00 0.00 0.00 52 1010.9
20260506133041 57 360 4.0 12.0 0.00 0.00 0.00 54 1010.8
20260506131534 58 74 1.0 10.0 0.00 0.00 0.00 53 1011.0
20260506130037 58 23 4.0 11.0 0.00 0.00 0.00 58 1010.9
20260506124532 58 30 9.0 13.0 0.00 0.00 0.00 59 1010.9
20260506123032 57 32 2.0 10.0 0.00 0.00 0.00 58 1011.0
20260506121530 58 11 2.0 11.0 0.00 0.00 0.00 61 1011.0
20260506120030 57 355 5.0 9.0 0.00 0.00 0.00 56 1011.1
20260506114527 57 73 1.0 7.0 0.00 0.00 0.00 56 1011.1
20260506113025 56 34 2.0 8.0 0.00 0.00 0.00 61 1011.2
20260506111524 56 355 2.0 8.0 0.00 0.00 0.00 64 1011.2
20260506110023 55 19 1.0 9.0 0.00 0.00 0.00 62 1011.3
20260506104526 54 43 1.0 8.0 0.00 0.00 0.00 66 1011.2
20260506103024 55 33 4.0 11.0 0.00 0.00 0.00 69 1011.2
20260506101523 55 21 5.0 10.0 0.00 0.00 0.00 72 1011.2
20260506100019 56 68 2.0 8.0 0.00 0.00 0.00 69 1011.2
20260506094516 54 17 1.0 9.0 0.00 0.00 0.00 62 1011.3
20260506093014 54 40 2.0 6.0 0.00 0.00 0.00 73 1011.4
20260506091517 54 46 1.0 8.0 0.00 0.00 0.00 72 1011.4
20260506090019 52 28 2.0 9.0 0.00 0.00 0.00 72 1011.4
20260506084529 53 32 5.0 9.0 0.00 0.00 0.00 74 1011.3